Hourly Data Report for May 29, 2021

TOBERMORY RCS
ONTARIO
Current Station Operator: ECCC - MSC

45°14'00.000" N
81°38'00.000" W
213.50 m
6128330
71767
TTR

Download Data

Hourly Data (May 2021)
Hourly Data Report for May 29, 2021
TIME
LST
Temp Definition
°C
Dew Point Definition
°C
Rel Hum Definition
%
Precip. Amount Definition
mm

Wind Dir Definition
10's deg

Wind Spd Definition
km/h
Visibility Definition
km
Stn Press Definition
kPa
Hmdx Definition


Wind Chill Definition


Weather Definition


00:00 6.9 -1.9 54 0.0 6 5   99.60     LegendNANA
01:00 6.9 -2.2 52 0.0 5 5   99.59     LegendNANA
02:00 5.1 -0.2 68 0.0 5 3   99.57     LegendNANA
03:00 5.6 0.8 71 0.0 6 4   99.59     LegendNANA
04:00 5.0 1.8 80 0.0 4 4   99.64     LegendNANA
05:00 5.3 2.3 81 0.0 2 5   99.70     LegendNANA
06:00 7.1 1.6 68 0.0 5 7   99.78     LegendNANA
07:00 9.2 2.5 63 0.0 4 6   99.84     LegendNANA
08:00 8.6 2.9 67 0.0 3 10   99.88     LegendNANA
09:00 9.9 1.7 57 0.0 5 11   99.90     LegendNANA
10:00 9.3 2.1 61 0.0 2 12   99.93     LegendNANA
11:00 10.4 1.5 54 0.0 1 11   99.96     LegendNANA
12:00 12.3 0.1 43 0.0 2 10   99.92     LegendNANA
13:00 12.9 -4.5 29 0.0 2 13   99.90     LegendNANA
14:00 13.7 -5.9 25 0.0 3 11   99.87     LegendNANA
15:00 14.0 -5.3 26 0.0 3 10   99.84     LegendNANA
16:00 15.2 -4.1 26 0.0 4 9   99.81     LegendNANA
17:00 13.7 -1.8 34 0.0 31 12   99.81     LegendNANA
18:00 12.9 -1.6 37 0.0 30 12   99.80     LegendNANA
19:00 10.8 -1.0 44 0.0 31 10   99.82     LegendNANA
20:00 9.1 -2.1 45 0.0 32 10   99.83     LegendNANA
21:00 8.1 -0.8 53 0.0 33 9   99.86     LegendNANA
22:00 8.2 -0.7 54 0.0 33 11   99.89     LegendNANA
23:00 7.0 0.4 63 0.0 34 7   99.92     LegendNANA

Notes on Data Quality.

Legend

  • E = Estimated
  • M = Missing
  • NA = Not Available*
  • [empty] = Indicates an unobserved value
Date modified: